Weather in Vyshkov

Ukraine / Ivano-Frankovsk District     48°43′36″N   23°39′25″E
temp.,
°C
wind,
m/s
gust,
m/s
humid.,
%
clouds,
%
prec.,
mm/h
press.,
hPa
HPBL,
m
29 june, wed
wed2900:00+17sse216893 0.0 102015
03:00+16sse2264100 0.0 102016
06:00+16sse227516 0.4 101923
09:00+23ese015213 0.4 1018519
12:00+27n223899 0.0 10172666
15:00+15s2498100 4.3 1020110
18:00+23se115750 1.1 1017351
21:00+20sse116812 1.1 101613
30 june, thu
thu3000:00+17sse226229 0.0 101713
03:00+18s225516 0.0 101715
06:00+17s22605 0.0 101616
09:00+25w114333 0.0 1016364
12:00+28nne22335 0.0 10152390
15:00+27ne433980 0.0 10151982
18:00+26ne234375 0.0 10151810
21:00+21e226666 0.0 101619
1 july, fri
fri100:00+17e22813 0.0 101722
03:00+16sse21845 0.0 101715
06:00+16se11780 0.0 101612
09:00+23ene11552 0.0 1016415
12:00+28nne22415 0.0 10151698
15:00+28ne444159 0.0 10152125
18:00+21sse2469100 0.6 1016204
21:00+16sse328799 4.6 101738
2 july, sat
sat200:00+15sse32859 0.1 101935
03:00+15s33866 0.9 101937
06:00+15ssw118865 0.1 102013
09:00+21ne116984 0.4 1020305
12:00+21n226999 0.0 1021499
15:00+22ne227454 0.9 1021714
18:00+18ne2396100 2.8 1022287
21:00+16ne229987 3.7 1023157
3 july, sun
sun300:00+15ene1198100 0.0 102433
03:00+13ne119828 0.0 102314
06:00+14ne129984 0.1 1023117
09:00+15ene119390 0.1 1023282
12:00+20nne227455 0.0 1022653
15:00+24n24557 0.1 10201353
18:00+23nne236134 0.4 1019749
21:00+17ene2192100 0.8 102022